TITAN 3C TRANSTAGE DEB, 59979

Orbit data source: Space-Track

TITAN 3C TRANSTAGE DEB, 59979 is space debris in GEO originally from a launch on Thu, 26 Sep 1968 UTC launched from the Air Force Eastern Test Range (AFETR). Debris objects in space refer to the collection of defunct objects orbiting the Earth. Examples of debris include non-operational satellites, rocket bodies, and fragments generated from explosions, collisions, or faulty payload assembly.

Not visible in the next 10 days
Identifier
59979, 1968-081AM
Orbit
GEO
Country
Flag of USUS
Related business
Manufacturer
Unknown
Mission
Spacecraft
Bus & Motor
Unknown
Mass
Unknown
Launch date (UTC)
1968-09-26 (57 years ago)
Launch vehicle
Unknown
Launch site
Air Force Eastern Test Range (AFETR)
Object type
Payload
Rocket body
Debris
Shape & HBR
Unknown shape, 1.1 m
Radar Cross Section
RCS unknown

Expand to show TLE details & history
Last TLE update: 2 days ago

TLE from 2 days ago
0 TITAN 3C TRANSTAGE DEB
1 59979U 68081AM  25305.04170398 -.00000029  00000-0  00000-0 0  9991
2 59979   2.1097  66.5683 0046802 146.7380 213.5934  1.03316361 58715
Epoch: 2025-11-01T01:00Z
TLE epoch observation values (Epoch: 2025-11-01T01:00:03.223Z)
Latitude
Longitude
10.97629°
Altitude
35,115.822 km
Speed
3.093 km/s
True Right ascension
04h 26m 16s
True Declination
0° 00' 00"
Sunlit
Object was in daylight at epoch
Visualization orbit readout
Latitude
Unknown
Longitude
Unknown
Altitude
Unknown
Speed
Unknown
Apparent Right ascension
Unknown
Apparent Declination
Unknown
Sunlit
N/A
Visualization observer readout
Local Sidereal Time
10:38:42
Azimuth
Unknown
Elevation
Unknown
Doppler factor
Unknown
Orbital elements
Apogee altitude
35,148.656 km
Perigee altitude
34,761.759 km
Semi-major axis
41,333.344 km
Eccentricity
0.00468
Inclination
2.1097°
RAAN
66.5683°
Arg. of periapsis
146.738°
True anomaly
213.2981°
Mean anomaly
213.5934°
Eccentric anomaly
213.44561°
Mean motion
0.25828 °/min
Orbital period
1,393.83 mins
BSTAR
0
Loading maneuver chart data...
Computing Atmospheric mass density...

Documentation

Showing up to 5 results
|